KEPLER-1 (CASE) (43729 NORAD) Tracking and Keplerian Element Data

This shows tracking and keplerian element data for the satellite.

Feedback or suggestion? Click here.




ElementValue
Catalog43729
NameKEPLER-1 (CASE)
Epoch Orbit23053
Epoch Day13.18810075
Epoch Year2023
RAAN103.9215
Inclination97.3371
Eccentricity0.0009051
Argument of Perigee355.4171
Mean Anonmoly4.7002
Mean Motion15.6208339
Decay Rate0.00240506
L11 43729U 18096L 23013.18810075 .00240506 00000+0 26713-2 0 9995
L22 43729 97.3371 103.9215 0009051 355.4171 4.7002 15.62083390230532



Live tracking and technical data element details for KEPLER-1 (CASE) (NORAD 43729). KEPLER-1 (CASE) can be tracked NOW for your location showing map with azimuth and elevation plus other details from your city location.







IsCatalogInMostPopularTable: catalog: 43729, numindb: 319
Update: records affected: 1



GetName: 43729 KEPLER-1 (CASE)

Hit Count: updated at: Thu, 15 May 2025 10:22:35 GMT